Theta_e
312 313 314 315 314 313 313 312 312 312 312 312 313 315 312 307 306 306 304 307 306 305 304 304 303 303 302 300 300 298 303 303 304 304 306 302 303 302 301 303 302 302 303 301 305
310 311 311 311 314 315 313 313 311 312 312 312 313 312 311 306 306 305 308 307 305 305 303 303 301 301 301 301 300 301 300 302 302 301 303 302 302 302 302 302 303 302 301 302 305
308 309 309 309 310 309 315 313 312 311 312 312 312 312 309 305 306 305 308 305 305 305 304 303 302 302 303 302 301 300 302 301 302 301 302 303 302 302 302 302 302 303 301 301 301
306 307 307 308 309 307 308 314 312 312 312 312 312 312 308 304 310 306 309 309 306 304 304 303 302 302 302 302 301 302 300 301 303 304 302 303 302 303 300 303 301 299 301 301 301
303 306 306 307 307 307 309 313 312 312 313 312 312 312 307 304 303 306 308 307 305 303 304 302 302 302 303 302 302 302 302 301 301 302 303 302 302 303 301 300 298 298 298 301 302
302 304 306 306 307 311 312 313 313 312 314 313 312 311 304 305 306 306 307 306 303 302 302 302 302 301 303 304 304 303 303 303 302 302 302 303 302 301 301 298 299 297 297 297 298
304 303 306 307 307 309 313 313 314 312 314 313 312 311 304 304 305 304 305 303 302 302 301 302 303 303 302 303 302 302 304 303 302 302 302 300 304 300 300 299 297 297 296 296 296
304 304 305 306 307 307 311 314 314 312 314 313 311 310 307 306 305 305 302 301 302 302 302 302 303 301 302 301 303 303 304 306 305 302 302 303 308 303 298 298 298 299 295 295 295
303 303 304 304 305 305 307 311 314 312 314 313 310 307 305 302 301 304 302 302 302 302 302 302 302 301 301 302 304 304 308 305 306 302 301 302 306 302 298 300 301 297 295 294 294
302 302 302 302 302 304 305 307 311 312 312 309 306 306 305 301 301 301 301 302 301 300 301 301 300 301 300 303 311 308 305 305 307 304 301 301 301 301 300 300 300 296 294 293 293
302 301 302 302 302 302 303 305 310 310 308 309 307 309 304 302 301 301 301 302 301 301 301 301 302 302 302 304 306 305 306 307 306 302 303 303 302 302 301 299 299 297 295 294 293
300 301 302 302 300 302 302 305 306 304 306 307 308 307 302 301 302 301 302 303 303 303 301 302 303 302 303 304 305 306 307 307 305 302 303 302 303 302 302 300 298 296 294 294 293
299 300 299 301 300 299 299 298 302 302 306 305 308 309 307 301 305 302 302 303 304 304 304 306 305 303 304 305 305 305 307 305 308 303 301 301 305 303 299 296 295 295 294 293 293
298 299 298 297 300 300 298 299 297 299 307 307 309 309 306 304 305 302 302 304 304 305 305 305 306 305 304 306 306 308 304 305 305 308 309 300 308 303 300 298 296 295 293 293 292
297 298 298 298 297 299 298 296 299 300 307 305 311 304 306 307 306 304 302 304 306 306 306 306 307 306 308 307 306 308 303 304 303 305 305 303 305 303 299 301 299 296 294 292 291
296 297 298 298 297 298 297 295 299 302 306 310 304 306 306 308 301 301 304 303 303 305 305 307 303 303 307 303 306 302 305 304 304 307 311 305 307 305 301 301 298 295 293 292 291
296 296 298 297 295 296 296 298 300 301 304 305 305 303 307 307 303 303 305 304 306 307 307 306 306 304 302 304 304 306 309 309 310 310 310 298 302 309 299 296 295 295 293 291 291
296 296 297 296 297 296 294 298 297 298 298 301 300 302 307 306 304 304 305 306 305 307 308 309 308 305 303 306 306 307 310 311 315 307 306 299 303 305 295 286 282 285 287 289 291
296 295 295 295 296 296 292 295 292 297 301 303 302 304 306 304 304 304 304 306 305 306 313 311 311 303 303 303 304 306 309 304 301 295 304 301 299 298 294 292 289 287 291 291 290
295 294 294 294 296 293 295 290 292 296 301 300 303 303 304 304 305 304 304 302 305 305 306 308 306 304 301 303 302 305 303 307 307 308 310 301 296 304 297 295 293 288 292 290 289
295 295 294 294 294 295 294 289 292 296 301 302 302 304 303 302 303 303 305 302 302 303 307 304 305 304 302 303 303 303 305 306 305 305 308 304 303 293 295 295 293 290 291 288 287
295 295 295 295 296 295 286 288 297 299 301 302 303 302 301 303 304 304 304 302 301 304 306 304 304 303 297 290 295 300 304 304 310 303 296 299 306 288 285 280 289 291 291 285 285
294 294 294 295 297 296 290 293 297 298 299 301 303 303 301 303 305 303 300 300 302 304 305 303 303 302 302 302 299 302 299 299 297 298 298 307 306 284 281 285 286 288 286 288 286
294 294 293 297 296 296 296 295 293 295 299 300 301 302 303 304 303 303 303 302 302 303 305 304 303 299 305 301 296 298 298 297 302 302 294 295 294 291 291 292 286 286 285 281 281
293 293 290 290 292 297 297 298 298 297 298 299 294 298 300 303 302 303 302 300 302 303 304 303 304 298 293 294 296 298 302 300 303 304 306 297 295 296 295 291 289 285 279 281 278
295 293 294 291 295 296 295 295 297 296 299 300 299 300 300 302 304 303 303 303 303 302 300 299 300 299 296 294 297 300 297 302 302 292 291 282 286 292 281 271 280 285 282 278 276
292 292 295 297 296 296 297 297 297 295 297 297 299 300 301 301 300 297 299 300 301 302 301 300 298 302 300 293 297 302 295 295 297 297 302 303 300 288 282 280 282 282 280 280 280
Wind_Speed
23 23 23 22 21 19 16 15 13 12 13 15 14 15 14 13 14 8 7 8 8 12 8 8 6 7 5 3 4 3 2 3 5 6 5 2 3 2 1 2 1 2 1 1 12
23 23 24 23 23 24 21 17 14 12 12 13 14 14 15 13 14 12 17 12 12 12 12 11 5 7 3 3 2 4 4 8 5 4 3 1 2 3 2 2 3 2 2 5 16
25 25 25 25 24 24 25 21 17 13 13 12 13 14 13 10 5 6 4 17 15 14 10 11 8 4 4 3 4 5 6 5 4 5 4 2 2 1 4 4 7 5 4 6 11
26 27 27 29 28 29 24 24 20 15 13 12 13 11 10 4 6 3 4 13 13 13 13 14 5 6 5 5 4 3 7 4 2 3 3 4 2 4 7 6 2 4 3 5 8
28 29 29 31 33 31 26 23 21 18 17 14 13 9 4 2 9 6 6 12 14 14 14 6 7 6 6 5 6 4 4 5 5 5 4 1 6 6 6 8 4 2 1 4 6
30 29 29 31 34 30 25 22 21 18 18 16 12 6 3 4 7 6 11 12 11 14 11 8 7 6 5 4 5 4 3 5 5 4 5 5 2 6 2 2 6 7 5 2 5
30 27 26 28 32 30 22 20 22 20 17 15 11 6 4 12 5 5 11 10 11 11 4 9 8 5 6 3 3 2 4 4 6 5 6 6 5 10 5 2 6 6 4 4 3
27 23 23 26 28 29 25 20 22 21 20 15 9 8 6 7 13 22 12 7 8 7 3 8 8 5 3 4 4 2 1 3 1 6 3 7 7 5 2 9 8 1 3 4 3
21 20 20 24 26 27 26 23 23 22 21 18 12 8 8 4 8 20 19 8 10 6 5 9 5 4 3 6 3 2 5 6 6 7 4 6 5 3 3 4 3 1 2 2 3
24 20 19 22 25 26 27 23 18 16 11 11 5 3 5 6 7 12 17 14 3 6 4 3 4 4 2 4 11 8 5 4 5 4 4 4 10 7 6 2 2 3 3 2 1
27 22 19 21 25 27 26 10 4 3 7 9 11 8 1 7 10 10 19 7 4 3 7 4 5 13 17 20 2 5 5 6 4 3 4 7 7 14 5 4 5 5 4 4 3
32 29 29 27 28 27 13 5 9 6 9 13 15 18 5 9 5 7 22 10 6 8 7 3 17 8 8 6 6 4 5 5 1 3 2 4 11 12 10 6 7 8 6 6 4
32 30 31 31 22 17 12 15 15 23 6 8 12 9 7 10 9 16 21 10 10 13 13 14 3 13 14 7 10 9 15 5 5 3 1 4 9 7 3 3 4 4 5 4 7
32 30 29 30 16 9 10 8 18 15 6 4 7 8 11 7 6 7 24 9 5 17 14 10 14 3 10 16 14 14 8 7 6 4 4 1 7 5 4 6 6 7 7 7 6
32 31 25 22 21 3 6 16 14 4 7 3 7 2 5 14 12 9 27 4 11 13 9 9 11 17 11 6 10 2 5 5 3 4 2 3 1 5 2 6 11 10 8 7 7
32 32 29 24 17 15 9 15 1 3 9 3 1 2 6 9 1 6 8 7 3 5 1 2 4 1 7 5 8 11 7 7 5 2 3 7 7 5 6 7 3 6 8 8 7
32 31 27 20 6 7 13 3 1 6 1 3 3 4 5 5 4 5 15 11 8 6 8 4 4 3 2 6 6 6 9 3 2 4 6 1 2 14 5 6 4 10 11 8 6
32 31 29 24 18 15 7 2 7 4 8 2 2 3 6 5 5 8 8 11 12 1 4 10 5 13 9 6 9 11 7 6 8 6 2 1 8 7 4 1 1 2 6 6 6
31 26 17 24 12 18 2 5 7 7 2 2 2 4 5 3 4 5 9 8 13 14 12 8 7 3 13 3 7 5 5 4 6 1 1 4 6 8 4 1 1 4 7 7 6
27 17 17 22 17 13 2 5 7 8 3 4 6 6 3 0 3 8 11 5 6 16 4 5 3 4 4 4 1 3 8 4 2 6 5 4 5 6 6 9 7 5 8 7 5
18 3 6 12 14 2 4 8 6 10 2 6 4 4 6 5 8 4 4 2 7 12 11 4 4 4 6 8 9 5 4 3 4 3 5 2 6 5 6 12 15 9 8 7 5
4 5 6 19 3 3 3 5 5 3 4 8 6 11 9 7 4 6 7 5 4 10 8 4 3 4 5 4 2 2 5 5 5 6 1 1 5 1 4 4 6 9 7 5 5
3 3 10 8 3 4 4 4 3 1 5 4 6 7 4 6 6 8 6 4 7 14 12 9 4 4 3 0 1 5 4 4 4 3 6 6 5 2 1 3 4 8 6 5 5
3 3 2 4 2 4 5 4 4 3 6 6 7 5 11 9 10 4 6 4 6 7 9 7 4 5 10 5 4 6 7 8 5 3 5 6 3 4 4 7 6 5 4 4 3
3 4 3 2 3 4 4 1 3 3 6 4 4 6 6 7 4 4 3 4 3 5 6 6 4 3 3 3 4 3 10 14 15 12 8 4 10 6 11 13 9 6 3 4 3
3 2 1 2 2 4 5 3 6 4 5 4 6 3 7 12 4 6 5 4 3 4 3 1 3 3 2 2 2 4 5 12 15 3 6 3 6 7 0 1 5 8 6 5 5
4 3 2 2 2 2 3 3 2 2 6 11 11 3 5 3 2 4 1 2 3 3 3 4 5 3 2 2 2 3 9 9 7 7 13 15 10 7 4 6 6 7 7 7 6
Wind_Direction
344 337 340 325 323 314 312 310 313 314 320 325 328 326 324 320 308 269 229 223 209 202 175 160 146 138 122 99 111 138 77 218 237 161 241 180 180 195 148 147 241 186 75 88 150
338 338 336 325 323 310 305 297 300 303 311 321 327 326 324 324 306 247 257 216 206 191 172 166 155 140 108 146 125 133 161 219 210 199 239 253 229 194 159 166 237 182 135 127 159
338 332 326 326 318 311 297 292 288 291 297 309 322 325 326 330 300 254 237 209 193 187 174 161 149 123 149 140 197 174 203 201 247 221 184 187 257 224 153 231 229 198 181 157 173
335 332 327 326 319 313 297 282 282 285 282 292 311 321 321 329 249 330 153 181 188 181 160 139 122 146 168 197 171 203 226 206 209 193 169 203 183 253 191 218 198 181 131 155 183
334 331 327 328 325 314 297 274 272 264 275 281 300 310 321 273 256 271 182 180 184 179 173 154 140 144 182 194 136 228 249 175 226 212 229 3 234 234 245 230 183 190 238 198 212
331 328 329 332 333 320 303 271 262 257 265 270 288 273 177 226 269 258 205 190 199 181 171 156 180 176 158 191 182 182 212 268 271 228 219 200 241 141 281 115 159 122 90 57 235
328 326 327 331 335 333 302 281 263 254 253 259 269 223 209 229 239 260 209 211 205 195 164 187 155 146 139 162 181 137 297 295 229 220 223 160 260 229 197 166 117 117 29 14 14
330 324 330 335 337 340 322 284 267 260 253 246 236 184 238 242 249 246 214 208 204 205 195 178 158 113 141 122 39 166 103 266 184 153 208 160 254 173 58 148 159 178 1 336 327
343 325 334 338 338 338 338 303 276 262 251 229 178 159 260 208 204 222 206 190 169 163 148 143 128 138 106 118 9 254 230 206 305 195 146 190 263 160 162 122 159 324 334 321 326
342 337 338 339 329 334 336 332 296 265 201 162 107 133 245 217 176 181 191 176 157 136 97 112 77 145 127 136 215 198 211 236 220 194 181 209 255 257 227 246 238 173 168 159 147
323 326 324 333 335 334 328 343 296 226 221 204 192 209 147 158 146 167 165 143 120 162 175 205 164 205 186 201 108 158 180 184 202 163 196 232 251 262 229 230 225 188 175 165 150
323 318 307 310 320 328 331 311 317 312 276 257 256 236 126 184 134 163 156 163 190 195 137 131 233 200 194 198 181 170 179 210 264 150 192 317 268 256 251 229 194 182 183 175 165
323 320 318 307 310 312 312 302 324 336 255 241 210 211 230 193 194 184 166 162 192 203 199 206 167 195 183 173 201 215 222 174 214 162 128 315 271 227 225 165 157 166 166 171 179
321 320 315 319 289 251 273 285 317 330 257 248 213 235 182 156 228 188 182 144 207 211 197 230 252 179 205 215 194 225 193 162 156 136 239 21 281 272 207 218 203 187 182 178 174
318 314 309 313 301 245 281 315 332 63 269 201 165 29 196 184 139 202 181 117 175 177 161 212 180 201 201 213 180 245 82 127 106 109 26 192 284 262 110 244 209 194 191 186 180
315 312 309 302 309 263 289 311 60 226 249 197 304 174 162 207 42 115 152 83 66 159 256 220 339 181 197 74 146 152 88 63 56 101 227 193 176 242 191 213 162 159 181 179 180
310 310 303 292 250 252 314 313 229 227 250 240 287 188 230 171 140 184 172 172 167 155 194 142 191 152 128 113 132 148 134 135 179 194 230 299 165 249 240 217 203 173 171 171 167
307 308 296 281 258 241 255 189 205 263 243 70 61 298 244 177 180 183 174 182 216 235 139 188 216 166 179 196 178 174 185 170 194 190 186 68 229 250 215 147 293 118 145 163 165
309 309 279 279 242 206 184 187 202 202 218 326 193 208 221 237 188 202 200 206 192 185 202 182 226 147 167 138 150 174 199 113 101 54 112 202 273 278 149 75 108 151 166 174 160
308 308 273 276 182 144 217 230 214 216 160 118 264 186 252 153 255 196 173 202 205 194 140 190 131 199 132 106 35 193 144 126 171 158 208 243 275 247 203 199 193 194 186 174 154
309 274 268 177 157 166 202 222 244 247 183 191 211 280 252 203 215 217 217 220 197 185 175 141 121 136 141 209 163 154 172 168 111 162 188 213 251 214 214 187 188 193 185 173 168
277 273 202 164 200 184 188 195 238 267 223 240 246 232 204 207 211 218 235 246 182 151 191 171 104 151 203 274 299 92 148 159 169 189 215 107 277 171 245 244 178 183 170 176 177
243 243 214 179 233 220 293 268 270 292 220 230 238 225 223 219 237 202 203 215 177 171 167 170 161 118 98 107 219 210 176 119 93 75 190 156 250 347 231 203 216 163 178 161 158
260 268 270 216 227 234 228 229 239 252 253 256 275 293 250 231 220 259 225 199 204 194 153 157 152 184 198 158 146 188 174 172 162 168 155 219 270 302 230 190 194 197 188 183 179
196 245 190 260 265 232 197 218 245 253 231 208 296 207 247 278 202 219 166 157 187 211 180 183 158 106 22 123 112 154 184 180 203 204 204 219 202 233 201 199 192 186 170 167 186
258 258 237 254 233 205 219 232 224 257 201 285 237 358 306 253 265 206 164 195 182 174 141 106 124 120 95 4 137 162 199 205 220 194 257 165 258 227 266 114 173 195 171 188 207
232 276 272 261 212 197 207 241 266 70 249 246 270 208 250 297 299 302 259 68 92 138 130 128 140 128 147 305 128 283 210 187 203 206 217 233 240 161 227 215 211 195 185 192 189